This is the latest recevied weather packets stored in our database for station/object K42C. If no packets are shown the sender has not sent any weather packets the latest 10 day(s).
| Time | Temp. | Humidity | Pressure | Rain* | Wind** | Luminosity | Snow |
|---|---|---|---|---|---|---|---|
| 1777821065 | 10.56° C | 71% | 974.1 hPa | 0 mm | 2.24 m/s, 188° | - | - |
| 1777820668 | 10.56° C | 71% | 974.3 hPa | 0 mm | 1.79 m/s, 184° | - | - |
| 1777820267 | 10° C | 72% | 974.3 hPa | 0 mm | 3.13 m/s, 179° | - | - |
| 1777819869 | 10° C | 71% | 974.3 hPa | 0 mm | 3.58 m/s, 205° | - | - |
| 1777819469 | 10° C | 71% | 974.4 hPa | 0 mm | 3.13 m/s, 214° | - | - |
| 1777819071 | 10.56° C | 70% | 974.3 hPa | 0 mm | 1.34 m/s, 239° | - | - |
| 1777818670 | 10.56° C | 70% | 974.2 hPa | 0 mm | 3.13 m/s, 222° | - | - |
| 1777818273 | 10° C | 69% | 974.5 hPa | 0 mm | 3.13 m/s, 149° | - | - |
| 1777817872 | 10° C | 70% | 974.5 hPa | 0 mm | 1.79 m/s, 204° | - | - |
| 1777817475 | 10° C | 70% | 974.6 hPa | 0 mm | 1.79 m/s, 290° | - | - |
| 1777817074 | 10° C | 71% | 974.6 hPa | 0 mm | 2.24 m/s, 222° | - | - |
| 1777816677 | 10° C | 72% | 974.6 hPa | 0 mm | 0.45 m/s, 222° | - | - |
| 1777816276 | 9.44° C | 71% | 974.8 hPa | 0 mm | 0.89 m/s, 207° | - | - |
| 1777815879 | 9.44° C | 71% | 974.8 hPa | 0 mm | 3.13 m/s, 232° | - | - |
| 1777815478 | 9.44° C | 72% | 974.9 hPa | 0 mm | 0.89 m/s, 232° | - | - |
| 1777815080 | 9.44° C | 72% | 974.8 hPa | 0 mm | 0.89 m/s, 257° | - | - |
| 1777814679 | 9.44° C | 72% | 974.8 hPa | 0 mm | 1.79 m/s, 153° | - | - |
| 1777814282 | 9.44° C | 71% | 974.8 hPa | 0 mm | 1.79 m/s, 210° | - | - |
| 1777813881 | 10° C | 71% | 974.7 hPa | 0 mm | 0.45 m/s, 232° | - | - |
| 1777813484 | 9.44° C | 72% | 974.9 hPa | 0 mm | 1.34 m/s, 207° | - | - |
| 1777813083 | 9.44° C | 71% | 975 hPa | 0 mm | 3.13 m/s, 198° | - | - |
| 1777812686 | 9.44° C | 72% | 975 hPa | 0 mm | 2.24 m/s, 235° | - | - |
| 1777811887 | 8.33° C | 76% | 975 hPa | 0 mm | 1.34 m/s, 219° | - | - |
| 1777811487 | 8.33° C | 76% | 974.9 hPa | 0 mm | 0.89 m/s, 232° | - | - |
| 1777811089 | 7.78° C | 79% | 975.1 hPa | 0 mm | 0 m/s | - | - |
* Rain latest hour (hover to see other rain measurements)
** Current wind speed in m/s (hover to see current wind gust speed)